contact:dominique.lefevre@mio.osupytheas.fr, maurice.libes@osupytheas.fr, didier.mallarino@osupytheas.fr
Project:EMSO http://www.emso-fr.org/EMSO-France
Depth: 2436.0 m
Title:EMSO Ligure Ouest : Data MII capteur MICROCAT
DateTime_Computer,Latitude,Longitude,Temperature,Conductivity,Pressure,DateTime_Instrument
DateTime_Computer,Latitude,Longitude,degC,S m-1,dbar,DateTime_Instrument
2022-04-22T00:02:02Z,42.805,6.029,13.3004,4.60052,2470.124,2022-4-22T02:03:41Z
2022-04-22T00:05:06Z,42.805,6.029,13.3005,4.60053,2470.133,2022-4-22T02:06:44Z
2022-04-22T00:08:09Z,42.805,6.029,13.3007,4.60060,2470.11,2022-4-22T02:09:48Z
2022-04-22T00:11:12Z,42.805,6.029,13.3008,4.60060,2470.087,2022-4-22T02:12:51Z
2022-04-22T00:14:15Z,42.805,6.029,13.3003,4.60054,2470.124,2022-4-22T02:15:54Z
2022-04-22T00:17:18Z,42.805,6.029,13.3006,4.60057,2470.133,2022-4-22T02:18:57Z
2022-04-22T00:20:21Z,42.805,6.029,13.3012,4.60061,2470.133,2022-4-22T02:22:00Z
2022-04-22T00:23:24Z,42.805,6.029,13.3003,4.60051,2470.133,2022-4-22T02:25:03Z
2022-04-22T00:26:27Z,42.805,6.029,13.3006,4.60052,2470.124,2022-4-22T02:28:06Z
2022-04-22T00:29:30Z,42.805,6.029,13.3000,4.60045,2470.124,2022-4-22T02:31:09Z
2022-04-22T00:32:34Z,42.805,6.029,13.3005,4.60054,2470.156,2022-4-22T02:34:13Z
2022-04-22T00:35:37Z,42.805,6.029,13.3013,4.60050,2470.147,2022-4-22T02:37:16Z
2022-04-22T00:38:40Z,42.805,6.029,13.3004,4.60045,2470.147,2022-4-22T02:40:19Z
2022-04-22T00:41:43Z,42.805,6.029,13.3006,4.60049,2470.11,2022-4-22T02:43:22Z
2022-04-22T00:44:46Z,42.805,6.029,13.3004,4.60053,2470.087,2022-4-22T02:46:25Z
2022-04-22T00:47:49Z,42.805,6.029,13.3006,4.60053,2470.11,2022-4-22T02:49:28Z
2022-04-22T00:50:52Z,42.805,6.029,13.3003,4.60052,2470.11,2022-4-22T02:52:31Z
2022-04-22T00:53:55Z,42.805,6.029,13.3005,4.60053,2470.087,2022-4-22T02:55:34Z
2022-04-22T00:56:59Z,42.805,6.029,13.3004,4.60046,2470.156,2022-4-22T02:58:38Z
2022-04-22T01:00:02Z,42.805,6.029,13.3014,4.60061,2470.087,2022-4-22T03:01:41Z
2022-04-22T01:03:05Z,42.805,6.029,13.3005,4.60052,2470.147,2022-4-22T03:04:44Z
2022-04-22T01:06:08Z,42.805,6.029,13.3005,4.60045,2470.077,2022-4-22T03:07:47Z
2022-04-22T01:09:11Z,42.805,6.029,13.3009,4.60057,2470.147,2022-4-22T03:10:50Z
2022-04-22T01:12:14Z,42.805,6.029,13.3005,4.60061,2470.11,2022-4-22T03:13:53Z
2022-04-22T01:15:17Z,42.805,6.029,13.3002,4.60054,2470.087,2022-4-22T03:16:56Z
2022-04-22T01:18:20Z,42.805,6.029,13.3009,4.60054,2470.087,2022-4-22T03:19:59Z
2022-04-22T01:21:23Z,42.805,6.029,13.3004,4.60057,2470.087,2022-4-22T03:23:02Z
2022-04-22T01:24:27Z,42.805,6.029,13.3009,4.60052,2470.11,2022-4-22T03:26:06Z
2022-04-22T01:27:30Z,42.805,6.029,13.3003,4.60056,2470.063,2022-4-22T03:29:09Z
2022-04-22T01:30:33Z,42.805,6.029,13.3013,4.60053,2470.133,2022-4-22T03:32:12Z
2022-04-22T01:33:36Z,42.805,6.029,13.3002,4.60051,2470.087,2022-4-22T03:35:15Z
2022-04-22T01:36:39Z,42.805,6.029,13.3004,4.60050,2470.087,2022-4-22T03:38:18Z
2022-04-22T01:39:42Z,42.805,6.029,13.3001,4.60049,2470.063,2022-4-22T03:41:21Z
2022-04-22T01:42:45Z,42.805,6.029,13.3009,4.60056,2470.077,2022-4-22T03:44:24Z
2022-04-22T01:45:48Z,42.805,6.029,13.3001,4.60066,2470.087,2022-4-22T03:47:27Z
2022-04-22T01:48:52Z,42.805,6.029,13.3006,4.60053,2470.087,2022-4-22T03:50:31Z
2022-04-22T01:51:55Z,42.805,6.029,13.3002,4.60053,2470.063,2022-4-22T03:53:34Z
2022-04-22T01:54:58Z,42.805,6.029,13.3007,4.60051,2470.077,2022-4-22T03:56:37Z
2022-04-22T01:58:01Z,42.805,6.029,13.3010,4.60060,2470.04,2022-4-22T03:59:40Z
2022-04-22T02:01:04Z,42.805,6.029,13.3006,4.60054,2470.04,2022-4-22T04:02:43Z
2022-04-22T02:04:07Z,42.805,6.029,13.3008,4.60058,2470.053,2022-4-22T04:05:46Z
2022-04-22T02:07:10Z,42.805,6.029,13.3004,4.60055,2470.063,2022-4-22T04:08:49Z
2022-04-22T02:10:13Z,42.805,6.029,13.3004,4.60055,2470.063,2022-4-22T04:11:52Z
2022-04-22T02:13:17Z,42.805,6.029,13.3010,4.60052,2470.063,2022-4-22T04:14:56Z
2022-04-22T02:16:20Z,42.805,6.029,13.3000,4.60053,2470.087,2022-4-22T04:17:59Z
2022-04-22T02:19:23Z,42.805,6.029,13.3006,4.60054,2470.063,2022-4-22T04:21:02Z
2022-04-22T02:22:26Z,42.805,6.029,13.3009,4.60060,2470.063,2022-4-22T04:24:05Z
2022-04-22T02:25:29Z,42.805,6.029,13.3006,4.60051,2470.077,2022-4-22T04:27:08Z
2022-04-22T02:28:32Z,42.805,6.029,13.3001,4.60054,2470.063,2022-4-22T04:30:11Z
2022-04-22T02:31:35Z,42.805,6.029,13.3008,4.60051,2470.1,2022-4-22T04:33:14Z
2022-04-22T02:34:38Z,42.805,6.029,13.3003,4.60054,2470.087,2022-4-22T04:36:17Z
2022-04-22T02:37:42Z,42.805,6.029,13.3002,4.60049,2470.087,2022-4-22T04:39:21Z
2022-04-22T02:40:45Z,42.805,6.029,13.3004,4.60052,2470.087,2022-4-22T04:42:24Z
2022-04-22T02:43:48Z,42.805,6.029,13.3006,4.60056,2470.063,2022-4-22T04:45:27Z
2022-04-22T02:46:51Z,42.805,6.029,13.3003,4.60049,2470.087,2022-4-22T04:48:30Z
2022-04-22T02:49:54Z,42.805,6.029,13.3008,4.60059,2470.063,2022-4-22T04:51:33Z
2022-04-22T02:52:57Z,42.805,6.029,13.3005,4.60051,2470.077,2022-4-22T04:54:36Z
2022-04-22T02:56:00Z,42.805,6.029,13.3006,4.60057,2470.087,2022-4-22T04:57:39Z
2022-04-22T02:59:03Z,42.805,6.029,13.3008,4.60054,2470.063,2022-4-22T05:00:42Z
2022-04-22T03:02:06Z,42.805,6.029,13.3011,4.60056,2470.053,2022-4-22T05:03:45Z
2022-04-22T03:05:10Z,42.805,6.029,13.3004,4.60057,2470.053,2022-4-22T05:06:49Z
2022-04-22T03:08:13Z,42.805,6.029,13.3007,4.60048,2470.077,2022-4-22T05:09:52Z
2022-04-22T03:11:16Z,42.805,6.029,13.3009,4.60053,2470.017,2022-4-22T05:12:55Z
2022-04-22T03:14:19Z,42.805,6.029,13.3006,4.60052,2470.017,2022-4-22T05:15:58Z
2022-04-22T03:17:22Z,42.805,6.029,13.3005,4.60059,2470.04,2022-4-22T05:19:01Z
2022-04-22T03:20:25Z,42.805,6.029,13.3008,4.60049,2470.017,2022-4-22T05:22:04Z
2022-04-22T03:23:28Z,42.805,6.029,13.3006,4.60049,2470.017,2022-4-22T05:25:07Z
2022-04-22T03:26:31Z,42.805,6.029,13.3002,4.60057,2470.03,2022-4-22T05:28:10Z
2022-04-22T03:29:35Z,42.805,6.029,13.3006,4.60060,2470.04,2022-4-22T05:31:14Z
2022-04-22T03:32:38Z,42.805,6.029,13.3004,4.60047,2469.979,2022-4-22T05:34:17Z
2022-04-22T03:35:41Z,42.805,6.029,13.3011,4.60052,2470.04,2022-4-22T05:37:20Z
2022-04-22T03:38:44Z,42.805,6.029,13.3005,4.60058,2470.03,2022-4-22T05:40:23Z
2022-04-22T03:41:47Z,42.805,6.029,13.3010,4.60062,2470.04,2022-4-22T05:43:26Z
2022-04-22T03:44:50Z,42.805,6.029,13.3009,4.60065,2470.03,2022-4-22T05:46:29Z
2022-04-22T03:47:53Z,42.805,6.029,13.3010,4.60057,2470.03,2022-4-22T05:49:32Z
2022-04-22T03:50:56Z,42.805,6.029,13.3003,4.60051,2470.04,2022-4-22T05:52:35Z
2022-04-22T03:54:00Z,42.805,6.029,13.3011,4.60061,2470.017,2022-4-22T05:55:39Z
2022-04-22T03:57:03Z,42.805,6.029,13.3005,4.60053,2470.053,2022-4-22T05:58:42Z
2022-04-22T04:00:06Z,42.805,6.029,13.3011,4.60062,2470.017,2022-4-22T06:01:45Z
2022-04-22T04:03:09Z,42.805,6.029,13.3012,4.60062,2470.007,2022-4-22T06:04:48Z
2022-04-22T04:06:12Z,42.805,6.029,13.3008,4.60055,2469.993,2022-4-22T06:07:51Z
2022-04-22T04:09:15Z,42.805,6.029,13.3008,4.60051,2469.984,2022-4-22T06:10:54Z
2022-04-22T04:12:18Z,42.805,6.029,13.3006,4.60052,2470.007,2022-4-22T06:13:57Z
2022-04-22T04:15:21Z,42.805,6.029,13.3006,4.60061,2470.053,2022-4-22T06:17:00Z
2022-04-22T04:18:24Z,42.805,6.029,13.3011,4.60055,2469.97,2022-4-22T06:20:03Z
2022-04-22T04:21:28Z,42.805,6.029,13.3008,4.60060,2470.007,2022-4-22T06:23:07Z
2022-04-22T04:24:31Z,42.805,6.029,13.3006,4.60054,2469.993,2022-4-22T06:26:10Z
2022-04-22T04:27:34Z,42.805,6.029,13.3006,4.60058,2470.007,2022-4-22T06:29:13Z
2022-04-22T04:30:37Z,42.805,6.029,13.3008,4.60055,2470.007,2022-4-22T06:32:16Z
2022-04-22T04:33:40Z,42.805,6.029,13.3009,4.60051,2469.993,2022-4-22T06:35:19Z
2022-04-22T04:36:43Z,42.805,6.029,13.3004,4.60055,2469.97,2022-4-22T06:38:22Z
2022-04-22T04:39:46Z,42.805,6.029,13.3006,4.60057,2469.97,2022-4-22T06:41:25Z
2022-04-22T04:42:49Z,42.805,6.029,13.3006,4.60055,2469.993,2022-4-22T06:44:28Z
2022-04-22T04:45:53Z,42.805,6.029,13.3004,4.60051,2469.984,2022-4-22T06:47:32Z
2022-04-22T04:48:56Z,42.805,6.029,13.3011,4.60062,2469.993,2022-4-22T06:50:35Z
2022-04-22T04:51:59Z,42.805,6.029,13.3013,4.60052,2469.993,2022-4-22T06:53:38Z
2022-04-22T04:55:02Z,42.805,6.029,13.3004,4.60053,2470.017,2022-4-22T06:56:41Z
2022-04-22T04:58:05Z,42.805,6.029,13.3007,4.60054,2469.97,2022-4-22T06:59:44Z
2022-04-22T05:01:08Z,42.805,6.029,13.3005,4.60059,2469.97,2022-4-22T07:02:47Z
2022-04-22T05:04:11Z,42.805,6.029,13.3008,4.60051,2469.97,2022-4-22T07:05:50Z
2022-04-22T05:07:14Z,42.805,6.029,13.3004,4.60052,2469.993,2022-4-22T07:08:53Z
2022-04-22T05:10:18Z,42.805,6.029,13.3009,4.60052,2470.007,2022-4-22T07:11:57Z
2022-04-22T05:13:21Z,42.805,6.029,13.3007,4.60061,2469.993,2022-4-22T07:15:00Z
2022-04-22T05:16:24Z,42.805,6.029,13.3006,4.60052,2470.007,2022-4-22T07:18:03Z
2022-04-22T05:19:27Z,42.805,6.029,13.3007,4.60052,2469.993,2022-4-22T07:21:06Z
2022-04-22T05:22:30Z,42.805,6.029,13.3009,4.60054,2469.97,2022-4-22T07:24:09Z
2022-04-22T05:25:33Z,42.805,6.029,13.3006,4.60057,2469.97,2022-4-22T07:27:12Z
2022-04-22T05:28:36Z,42.805,6.029,13.3004,4.60055,2469.947,2022-4-22T07:30:15Z
2022-04-22T05:31:39Z,42.805,6.029,13.3009,4.60062,2469.96,2022-4-22T07:33:18Z
2022-04-22T05:34:42Z,42.805,6.029,13.3006,4.60049,2469.923,2022-4-22T07:36:21Z
2022-04-22T05:37:46Z,42.805,6.029,13.3008,4.60057,2469.97,2022-4-22T07:39:25Z
2022-04-22T05:40:49Z,42.805,6.029,13.3006,4.60058,2469.993,2022-4-22T07:42:28Z
2022-04-22T05:43:52Z,42.805,6.029,13.3009,4.60052,2470.007,2022-4-22T07:45:31Z
2022-04-22T05:46:55Z,42.805,6.029,13.3001,4.60049,2470.007,2022-4-22T07:48:34Z
2022-04-22T05:49:58Z,42.805,6.029,13.3009,4.60055,2469.97,2022-4-22T07:51:37Z
2022-04-22T05:53:01Z,42.805,6.029,13.3009,4.60053,2469.97,2022-4-22T07:54:40Z
2022-04-22T05:56:04Z,42.805,6.029,13.3006,4.60058,2469.96,2022-4-22T07:57:43Z
2022-04-22T05:59:07Z,42.805,6.029,13.3005,4.60053,2469.947,2022-4-22T08:00:46Z
2022-04-22T06:02:11Z,42.805,6.029,13.3004,4.60057,2469.993,2022-4-22T08:03:50Z
2022-04-22T06:05:14Z,42.805,6.029,13.3012,4.60061,2469.947,2022-4-22T08:06:53Z
2022-04-22T06:08:17Z,42.805,6.029,13.3009,4.60060,2469.97,2022-4-22T08:09:56Z
2022-04-22T06:11:20Z,42.805,6.029,13.3009,4.60057,2469.97,2022-4-22T08:12:59Z
2022-04-22T06:14:23Z,42.805,6.029,13.3007,4.60054,2469.993,2022-4-22T08:16:02Z
2022-04-22T06:17:26Z,42.805,6.029,13.3006,4.60053,2469.923,2022-4-22T08:19:05Z
2022-04-22T06:20:29Z,42.805,6.029,13.3006,4.60054,2469.97,2022-4-22T08:22:08Z
2022-04-22T06:23:32Z,42.805,6.029,13.3012,4.60058,2469.97,2022-4-22T08:25:11Z
2022-04-22T06:26:36Z,42.805,6.029,13.3007,4.60049,2469.96,2022-4-22T08:28:15Z
2022-04-22T06:29:39Z,42.805,6.029,13.3011,4.60055,2469.984,2022-4-22T08:31:18Z
2022-04-22T06:32:42Z,42.805,6.029,13.3007,4.60052,2469.97,2022-4-22T08:34:21Z
2022-04-22T06:35:45Z,42.805,6.029,13.3006,4.60045,2469.993,2022-4-22T08:37:24Z
2022-04-22T06:38:48Z,42.805,6.029,13.3007,4.60051,2469.97,2022-4-22T08:40:27Z
2022-04-22T06:41:51Z,42.805,6.029,13.3009,4.60052,2469.984,2022-4-22T08:43:30Z
2022-04-22T06:44:54Z,42.805,6.029,13.3011,4.60051,2469.993,2022-4-22T08:46:33Z
2022-04-22T06:47:57Z,42.805,6.029,13.3006,4.60057,2469.993,2022-4-22T08:49:36Z
2022-04-22T06:51:01Z,42.805,6.029,13.3009,4.60058,2470.017,2022-4-22T08:52:40Z
2022-04-22T06:54:04Z,42.805,6.029,13.3009,4.60050,2470.007,2022-4-22T08:55:43Z
2022-04-22T06:57:07Z,42.805,6.029,13.3004,4.60053,2469.984,2022-4-22T08:58:46Z
2022-04-22T07:00:10Z,42.805,6.029,13.3014,4.60056,2470.007,2022-4-22T09:01:49Z
2022-04-22T07:03:13Z,42.805,6.029,13.3008,4.60057,2470.03,2022-4-22T09:04:52Z
2022-04-22T07:06:16Z,42.805,6.029,13.3000,4.60058,2469.993,2022-4-22T09:07:55Z
2022-04-22T07:09:19Z,42.805,6.029,13.3007,4.60051,2470.04,2022-4-22T09:10:58Z
2022-04-22T07:12:22Z,42.805,6.029,13.3004,4.60053,2469.993,2022-4-22T09:14:01Z
2022-04-22T07:15:25Z,42.805,6.029,13.3005,4.60051,2470.007,2022-4-22T09:17:04Z
2022-04-22T07:18:29Z,42.805,6.029,13.3009,4.60053,2470.053,2022-4-22T09:20:08Z
2022-04-22T07:21:32Z,42.805,6.029,13.3009,4.60065,2470.017,2022-4-22T09:23:11Z
2022-04-22T07:24:35Z,42.805,6.029,13.3009,4.60054,2470.017,2022-4-22T09:26:14Z
2022-04-22T07:27:38Z,42.805,6.029,13.3008,4.60055,2470.017,2022-4-22T09:29:17Z
2022-04-22T07:30:41Z,42.805,6.029,13.3011,4.60052,2470.04,2022-4-22T09:32:20Z
2022-04-22T07:33:44Z,42.805,6.029,13.3008,4.60060,2470.007,2022-4-22T09:35:23Z
2022-04-22T07:36:47Z,42.805,6.029,13.3008,4.60050,2470.04,2022-4-22T09:38:26Z
2022-04-22T07:39:50Z,42.805,6.029,13.3004,4.60055,2470.017,2022-4-22T09:41:29Z
2022-04-22T07:42:54Z,42.805,6.029,13.3011,4.60062,2470.063,2022-4-22T09:44:33Z
2022-04-22T07:45:57Z,42.805,6.029,13.3006,4.60058,2470.063,2022-4-22T09:47:36Z
2022-04-22T07:49:00Z,42.805,6.029,13.3016,4.60054,2470.053,2022-4-22T09:50:39Z
2022-04-22T07:52:03Z,42.805,6.029,13.3012,4.60060,2470.04,2022-4-22T09:53:42Z
2022-04-22T07:55:06Z,42.805,6.029,13.3009,4.60060,2470.053,2022-4-22T09:56:45Z
2022-04-22T07:58:09Z,42.805,6.029,13.3014,4.60054,2470.087,2022-4-22T09:59:48Z
2022-04-22T08:01:12Z,42.805,6.029,13.3001,4.60052,2470.04,2022-4-22T10:02:51Z
2022-04-22T08:04:15Z,42.805,6.029,13.3003,4.60047,2470.04,2022-4-22T10:05:54Z
2022-04-22T08:07:19Z,42.805,6.029,13.3009,4.60058,2470.04,2022-4-22T10:08:58Z
2022-04-22T08:10:22Z,42.805,6.029,13.3007,4.60056,2470.063,2022-4-22T10:12:01Z
2022-04-22T08:13:25Z,42.805,6.029,13.3008,4.60049,2470.026,2022-4-22T10:15:04Z
2022-04-22T08:16:28Z,42.805,6.029,13.3004,4.60057,2470.04,2022-4-22T10:18:07Z
2022-04-22T08:19:31Z,42.805,6.029,13.3019,4.60064,2470.077,2022-4-22T10:21:10Z
2022-04-22T08:22:34Z,42.805,6.029,13.3009,4.60066,2470.04,2022-4-22T10:24:13Z
2022-04-22T08:25:37Z,42.805,6.029,13.3011,4.60060,2470.063,2022-4-22T10:27:16Z
2022-04-22T08:28:40Z,42.805,6.029,13.3008,4.60055,2470.11,2022-4-22T10:30:19Z
2022-04-22T08:31:44Z,42.805,6.029,13.3011,4.60064,2470.063,2022-4-22T10:33:23Z
2022-04-22T08:34:47Z,42.805,6.029,13.3007,4.60067,2470.063,2022-4-22T10:36:26Z
2022-04-22T08:37:50Z,42.805,6.029,13.3010,4.60052,2470.1,2022-4-22T10:39:29Z
2022-04-22T08:40:53Z,42.805,6.029,13.3006,4.60050,2470.1,2022-4-22T10:42:32Z
2022-04-22T08:43:56Z,42.805,6.029,13.3006,4.60057,2470.1,2022-4-22T10:45:35Z
2022-04-22T08:46:59Z,42.805,6.029,13.3015,4.60056,2470.063,2022-4-22T10:48:38Z
2022-04-22T08:50:02Z,42.805,6.029,13.3009,4.60057,2470.11,2022-4-22T10:51:41Z
2022-04-22T08:53:06Z,42.805,6.029,13.3004,4.60056,2470.087,2022-4-22T10:54:45Z
2022-04-22T08:56:09Z,42.805,6.029,13.3006,4.60054,2470.063,2022-4-22T10:57:48Z
2022-04-22T08:59:12Z,42.805,6.029,13.3004,4.60067,2470.11,2022-4-22T11:00:51Z
2022-04-22T09:02:15Z,42.805,6.029,13.3008,4.60065,2470.11,2022-4-22T11:03:54Z
2022-04-22T09:05:18Z,42.805,6.029,13.3007,4.60067,2470.11,2022-4-22T11:06:57Z
2022-04-22T09:08:21Z,42.805,6.029,13.3011,4.60060,2470.147,2022-4-22T11:10:00Z
2022-04-22T09:11:24Z,42.805,6.029,13.3014,4.60068,2470.124,2022-4-22T11:13:03Z
2022-04-22T09:14:27Z,42.805,6.029,13.3011,4.60054,2470.087,2022-4-22T11:16:06Z
2022-04-22T09:17:30Z,42.805,6.029,13.3011,4.60054,2470.124,2022-4-22T11:19:09Z
2022-04-22T09:20:34Z,42.805,6.029,13.3007,4.60057,2470.147,2022-4-22T11:22:13Z
2022-04-22T09:23:37Z,42.805,6.029,13.3006,4.60054,2470.124,2022-4-22T11:25:16Z
2022-04-22T09:26:40Z,42.805,6.029,13.3009,4.60059,2470.11,2022-4-22T11:28:19Z
2022-04-22T09:29:43Z,42.805,6.029,13.3006,4.60064,2470.124,2022-4-22T11:31:22Z
2022-04-22T09:32:46Z,42.805,6.029,13.3009,4.60060,2470.171,2022-4-22T11:34:25Z
2022-04-22T09:35:49Z,42.805,6.029,13.3006,4.60052,2470.133,2022-4-22T11:37:28Z
2022-04-22T09:38:52Z,42.805,6.029,13.3011,4.60063,2470.124,2022-4-22T11:40:31Z
2022-04-22T09:41:55Z,42.805,6.029,13.3009,4.60068,2470.11,2022-4-22T11:43:34Z
2022-04-22T09:44:59Z,42.805,6.029,13.3011,4.60066,2470.133,2022-4-22T11:46:38Z
2022-04-22T09:48:02Z,42.805,6.029,13.3008,4.60063,2470.133,2022-4-22T11:49:41Z
2022-04-22T09:51:05Z,42.805,6.029,13.3011,4.60059,2470.124,2022-4-22T11:52:44Z
2022-04-22T09:54:08Z,42.805,6.029,13.3006,4.60051,2470.11,2022-4-22T11:55:47Z
2022-04-22T09:57:11Z,42.805,6.029,13.3009,4.60054,2470.133,2022-4-22T11:58:50Z
2022-04-22T10:00:14Z,42.805,6.029,13.3011,4.60063,2470.147,2022-4-22T12:01:53Z
2022-04-22T10:03:17Z,42.805,6.029,13.3011,4.60072,2470.124,2022-4-22T12:04:56Z
2022-04-22T10:06:20Z,42.805,6.029,13.3009,4.60059,2470.156,2022-4-22T12:07:59Z
2022-04-22T10:09:24Z,42.805,6.029,13.3010,4.60062,2470.147,2022-4-22T12:11:03Z
2022-04-22T10:12:27Z,42.805,6.029,13.3009,4.60067,2470.171,2022-4-22T12:14:06Z
2022-04-22T10:15:30Z,42.805,6.029,13.3007,4.60072,2470.156,2022-4-22T12:17:09Z
2022-04-22T10:18:33Z,42.805,6.029,13.3006,4.60064,2470.171,2022-4-22T12:20:12Z
2022-04-22T10:21:36Z,42.805,6.029,13.3011,4.60054,2470.147,2022-4-22T12:23:15Z
2022-04-22T10:24:39Z,42.805,6.029,13.3009,4.60062,2470.147,2022-4-22T12:26:18Z
2022-04-22T10:27:42Z,42.805,6.029,13.3010,4.60064,2470.156,2022-4-22T12:29:21Z
2022-04-22T10:30:45Z,42.805,6.029,13.3011,4.60064,2470.156,2022-4-22T12:32:24Z
2022-04-22T10:33:49Z,42.805,6.029,13.3015,4.60070,2470.133,2022-4-22T12:35:28Z
2022-04-22T10:36:52Z,42.805,6.029,13.3011,4.60078,2470.133,2022-4-22T12:38:31Z
2022-04-22T10:39:55Z,42.805,6.029,13.3008,4.60058,2470.11,2022-4-22T12:41:34Z
2022-04-22T10:42:58Z,42.805,6.029,13.3010,4.60063,2470.156,2022-4-22T12:44:37Z
2022-04-22T10:46:01Z,42.805,6.029,13.3008,4.60067,2470.133,2022-4-22T12:47:40Z
2022-04-22T10:49:04Z,42.805,6.029,13.3009,4.60062,2470.194,2022-4-22T12:50:43Z
2022-04-22T10:52:07Z,42.805,6.029,13.3009,4.60063,2470.133,2022-4-22T12:53:46Z
2022-04-22T10:55:11Z,42.805,6.029,13.3004,4.60054,2470.171,2022-4-22T12:56:50Z
2022-04-22T10:58:14Z,42.805,6.029,13.3010,4.60064,2470.171,2022-4-22T12:59:53Z
2022-04-22T11:01:17Z,42.805,6.029,13.3013,4.60062,2470.133,2022-4-22T13:02:56Z
2022-04-22T11:04:20Z,42.805,6.029,13.3009,4.60060,2470.18,2022-4-22T13:05:59Z
2022-04-22T11:07:23Z,42.805,6.029,13.3014,4.60059,2470.147,2022-4-22T13:09:02Z
2022-04-22T11:10:26Z,42.805,6.029,13.3009,4.60056,2470.156,2022-4-22T13:12:05Z
2022-04-22T11:13:29Z,42.805,6.029,13.3009,4.60060,2470.143,2022-4-22T13:15:08Z
2022-04-22T11:16:32Z,42.805,6.029,13.3009,4.60076,2470.156,2022-4-22T13:18:11Z
2022-04-22T11:19:36Z,42.805,6.029,13.3011,4.60074,2470.156,2022-4-22T13:21:15Z
2022-04-22T11:22:39Z,42.805,6.029,13.3014,4.60062,2470.18,2022-4-22T13:24:18Z
2022-04-22T11:25:42Z,42.805,6.029,13.3006,4.60054,2470.156,2022-4-22T13:27:21Z
2022-04-22T11:28:45Z,42.805,6.029,13.3006,4.60060,2470.156,2022-4-22T13:30:24Z
2022-04-22T11:31:48Z,42.805,6.029,13.3009,4.60064,2470.156,2022-4-22T13:33:27Z
2022-04-22T11:34:51Z,42.805,6.029,13.3015,4.60063,2470.194,2022-4-22T13:36:30Z
2022-04-22T11:37:54Z,42.805,6.029,13.3012,4.60068,2470.203,2022-4-22T13:39:33Z
2022-04-22T11:40:57Z,42.805,6.029,13.3012,4.60067,2470.18,2022-4-22T13:42:36Z
2022-04-22T11:44:01Z,42.805,6.029,13.3012,4.60066,2470.171,2022-4-22T13:45:40Z
2022-04-22T11:47:04Z,42.805,6.029,13.3011,4.60068,2470.194,2022-4-22T13:48:43Z
2022-04-22T11:50:07Z,42.805,6.029,13.3014,4.60070,2470.156,2022-4-22T13:51:46Z
2022-04-22T11:53:10Z,42.805,6.029,13.3006,4.60070,2470.133,2022-4-22T13:54:49Z
2022-04-22T11:56:13Z,42.805,6.029,13.3012,4.60067,2470.156,2022-4-22T13:57:52Z
2022-04-22T11:59:16Z,42.805,6.029,13.3011,4.60066,2470.156,2022-4-22T14:00:55Z
2022-04-22T12:02:19Z,42.805,6.029,13.3008,4.60061,2470.156,2022-4-22T14:03:58Z
2022-04-22T12:05:22Z,42.805,6.029,13.3007,4.60061,2470.171,2022-4-22T14:07:01Z
2022-04-22T12:08:26Z,42.805,6.029,13.3011,4.60063,2470.156,2022-4-22T14:10:05Z
2022-04-22T12:11:29Z,42.805,6.029,13.3012,4.60070,2470.156,2022-4-22T14:13:08Z
2022-04-22T12:14:32Z,42.805,6.029,13.3014,4.60074,2470.156,2022-4-22T14:16:11Z
2022-04-22T12:17:35Z,42.805,6.029,13.3015,4.60071,2470.156,2022-4-22T14:19:14Z
2022-04-22T12:20:38Z,42.805,6.029,13.3006,4.60059,2470.156,2022-4-22T14:22:17Z
2022-04-22T12:23:41Z,42.805,6.029,13.3015,4.60059,2470.194,2022-4-22T14:25:20Z
2022-04-22T12:26:44Z,42.805,6.029,13.3011,4.60069,2470.133,2022-4-22T14:28:23Z
2022-04-22T12:29:47Z,42.805,6.029,13.3006,4.60060,2470.156,2022-4-22T14:31:26Z
2022-04-22T12:32:51Z,42.805,6.029,13.3009,4.60060,2470.171,2022-4-22T14:34:30Z
2022-04-22T12:35:54Z,42.805,6.029,13.3006,4.60049,2470.156,2022-4-22T14:37:33Z
2022-04-22T12:38:57Z,42.805,6.029,13.3004,4.60062,2470.156,2022-4-22T14:40:36Z
2022-04-22T12:42:00Z,42.805,6.029,13.3014,4.60056,2470.18,2022-4-22T14:43:39Z
2022-04-22T12:45:03Z,42.805,6.029,13.3004,4.60067,2470.18,2022-4-22T14:46:42Z
2022-04-22T12:48:06Z,42.805,6.029,13.3015,4.60072,2470.156,2022-4-22T14:49:45Z
2022-04-22T12:51:09Z,42.805,6.029,13.3008,4.60060,2470.18,2022-4-22T14:52:48Z
2022-04-22T12:54:12Z,42.805,6.029,13.3004,4.60052,2470.217,2022-4-22T14:55:51Z
2022-04-22T12:57:16Z,42.805,6.029,13.3012,4.60069,2470.171,2022-4-22T14:58:55Z
2022-04-22T13:00:19Z,42.805,6.029,13.3008,4.60062,2470.156,2022-4-22T15:01:58Z
2022-04-22T13:03:22Z,42.805,6.029,13.3008,4.60067,2470.156,2022-4-22T15:05:01Z
2022-04-22T13:06:25Z,42.805,6.029,13.3004,4.60059,2470.156,2022-4-22T15:08:04Z
2022-04-22T13:09:28Z,42.805,6.029,13.3002,4.60060,2470.171,2022-4-22T15:11:07Z
2022-04-22T13:12:31Z,42.805,6.029,13.3011,4.60058,2470.147,2022-4-22T15:14:10Z
2022-04-22T13:15:34Z,42.805,6.029,13.3013,4.60066,2470.171,2022-4-22T15:17:13Z
2022-04-22T13:18:37Z,42.805,6.029,13.3013,4.60072,2470.133,2022-4-22T15:20:16Z
2022-04-22T13:21:41Z,42.805,6.029,13.3010,4.60054,2470.18,2022-4-22T15:23:20Z
2022-04-22T13:24:44Z,42.805,6.029,13.3005,4.60065,2470.171,2022-4-22T15:26:23Z
2022-04-22T13:27:47Z,42.805,6.029,13.3010,4.60057,2470.133,2022-4-22T15:29:26Z
2022-04-22T13:30:50Z,42.805,6.029,13.3017,4.60062,2470.119,2022-4-22T15:32:29Z
2022-04-22T13:33:53Z,42.805,6.029,13.3005,4.60063,2470.156,2022-4-22T15:35:32Z
2022-04-22T13:36:56Z,42.805,6.029,13.3009,4.60064,2470.18,2022-4-22T15:38:35Z
2022-04-22T13:39:59Z,42.805,6.029,13.3014,4.60059,2470.18,2022-4-22T15:41:38Z
2022-04-22T13:43:02Z,42.805,6.029,13.3002,4.60060,2470.156,2022-4-22T15:44:41Z
2022-04-22T13:46:06Z,42.805,6.029,13.3008,4.60064,2470.18,2022-4-22T15:47:45Z
2022-04-22T13:49:09Z,42.805,6.029,13.3009,4.60062,2470.171,2022-4-22T15:50:48Z
2022-04-22T13:52:12Z,42.805,6.029,13.3006,4.60063,2470.156,2022-4-22T15:53:51Z
2022-04-22T13:55:15Z,42.805,6.029,13.3014,4.60073,2470.194,2022-4-22T15:56:54Z
2022-04-22T13:58:18Z,42.805,6.029,13.3010,4.60072,2470.156,2022-4-22T15:59:57Z
2022-04-22T14:01:21Z,42.805,6.029,13.3007,4.60064,2470.18,2022-4-22T16:03:00Z
2022-04-22T14:04:24Z,42.805,6.029,13.3004,4.60061,2470.18,2022-4-22T16:06:03Z
2022-04-22T14:07:27Z,42.805,6.029,13.3007,4.60060,2470.194,2022-4-22T16:09:06Z
2022-04-22T14:10:31Z,42.805,6.029,13.3008,4.60064,2470.156,2022-4-22T16:12:10Z
2022-04-22T14:13:34Z,42.805,6.029,13.3004,4.60062,2470.171,2022-4-22T16:15:13Z
2022-04-22T14:16:37Z,42.805,6.029,13.3005,4.60062,2470.156,2022-4-22T16:18:16Z
2022-04-22T14:19:40Z,42.805,6.029,13.3011,4.60057,2470.18,2022-4-22T16:21:19Z
2022-04-22T14:22:43Z,42.805,6.029,13.3004,4.60061,2470.147,2022-4-22T16:24:22Z
2022-04-22T14:25:46Z,42.805,6.029,13.3004,4.60047,2470.18,2022-4-22T16:27:25Z
2022-04-22T14:28:49Z,42.805,6.029,13.3008,4.60059,2470.171,2022-4-22T16:30:28Z
2022-04-22T14:31:52Z,42.805,6.029,13.3014,4.60057,2470.18,2022-4-22T16:33:31Z
2022-04-22T14:34:56Z,42.805,6.029,13.3007,4.60060,2470.156,2022-4-22T16:36:35Z
2022-04-22T14:37:59Z,42.805,6.029,13.3009,4.60067,2470.18,2022-4-22T16:39:38Z
2022-04-22T14:41:02Z,42.805,6.029,13.3007,4.60063,2470.18,2022-4-22T16:42:41Z
2022-04-22T14:44:05Z,42.805,6.029,13.3009,4.60067,2470.156,2022-4-22T16:45:44Z
2022-04-22T14:47:08Z,42.805,6.029,13.3014,4.60068,2470.171,2022-4-22T16:48:47Z
2022-04-22T14:50:11Z,42.805,6.029,13.3010,4.60057,2470.18,2022-4-22T16:51:50Z
2022-04-22T14:53:14Z,42.805,6.029,13.3012,4.60067,2470.171,2022-4-22T16:54:53Z
2022-04-22T14:56:17Z,42.805,6.029,13.3014,4.60067,2470.156,2022-4-22T16:57:56Z
2022-04-22T14:59:21Z,42.805,6.029,13.3008,4.60062,2470.194,2022-4-22T17:01:00Z
2022-04-22T15:02:24Z,42.805,6.029,13.3004,4.60056,2470.147,2022-4-22T17:04:03Z
2022-04-22T15:05:27Z,42.805,6.029,13.3007,4.60061,2470.156,2022-4-22T17:07:06Z
2022-04-22T15:08:30Z,42.805,6.029,13.3015,4.60064,2470.147,2022-4-22T17:10:09Z
2022-04-22T15:11:33Z,42.805,6.029,13.3011,4.60064,2470.217,2022-4-22T17:13:12Z